GLO1782 SBBR-SBEG

Flight info

Callsign GLO1782
Flight time 2h 34m
Altitude 36000
Route UGUGA UM409 ESMAR DCT IRUMO
Aircraft B738/M-SDFGIKLORWXY/LB1

Departure

Time 2026-04-21 21:17
Airport Presidente Juscelino Kubitschek International Airport (SBBR)

Arrival

Time 2026-04-21 23:51
Airport Eduardo Gomes International Airport (SBEG)
Time Latitude Longitude Altitude Speed Heading
2026-04-21 20:52 -15.86707 -47.91892 3471 ft 0 kts 176°
2026-04-21 21:04 -15.86699 -47.91893 3469 ft 3 kts 177°
2026-04-21 21:04 -15.86679 -47.91893 3470 ft 3 kts 181°
2026-04-21 21:04 -15.86665 -47.91893 3469 ft 3 kts 185°
2026-04-21 21:05 -15.86638 -47.91888 3471 ft 3 kts 199°
2026-04-21 21:05 -15.86627 -47.91883 3469 ft 3 kts 216°
2026-04-21 21:05 -15.86616 -47.91871 3467 ft 2 kts 260°
2026-04-21 21:05 -15.86615 -47.91868 3467 ft 1 kts 266°
2026-04-21 21:10 -15.86616 -47.91869 3471 ft 3 kts 266°
2026-04-21 21:10 -15.86618 -47.91911 3471 ft 6 kts 266°
2026-04-21 21:11 -15.86619 -47.91927 3471 ft 0 kts 266°
2026-04-21 21:11 -15.86622 -47.91970 3471 ft 13 kts 266°
2026-04-21 21:11 -15.86628 -47.92062 3471 ft 13 kts 267°
2026-04-21 21:12 -15.86634 -47.92153 3471 ft 12 kts 268°
2026-04-21 21:12 -15.86603 -47.92234 3470 ft 12 kts 296°
2026-04-21 21:12 -15.86561 -47.92308 3468 ft 12 kts 310°
2026-04-21 21:12 -15.86527 -47.92383 3469 ft 11 kts 278°
2026-04-21 21:13 -15.86531 -47.92464 3468 ft 11 kts 266°
2026-04-21 21:13 -15.86537 -47.92544 3466 ft 11 kts 265°
2026-04-21 21:13 -15.86542 -47.92621 3465 ft 11 kts 266°
2026-04-21 21:13 -15.86547 -47.92697 3464 ft 10 kts 265°
2026-04-21 21:14 -15.86544 -47.92756 3463 ft 1 kts 304°
2026-04-21 21:14 -15.86497 -47.92767 3461 ft 11 kts 360°
2026-04-21 21:14 -15.86479 -47.92767 3459 ft 0 kts 356°
2026-04-21 21:15 -15.86474 -47.92768 3459 ft 5 kts 356°
2026-04-21 21:15 -15.86419 -47.92765 3460 ft 8 kts 21°
2026-04-21 21:15 -15.86370 -47.92742 3459 ft 7 kts 13°
2026-04-21 21:15 -15.86355 -47.92730 3459 ft 0 kts 58°
2026-04-21 21:16 -15.86355 -47.92713 3459 ft 10 kts 85°
2026-04-21 21:16 -15.86333 -47.92371 3465 ft 84 kts 86°
2026-04-21 21:16 -15.86278 -47.91521 3463 ft 149 kts 86°
2026-04-21 21:16 -15.86207 -47.90258 3571 ft 196 kts 87°
2026-04-21 21:17 -15.86117 -47.88821 4376 ft 199 kts 87°
2026-04-21 21:17 -15.86017 -47.87393 5087 ft 206 kts 86°
2026-04-21 21:17 -15.85914 -47.85824 5269 ft 230 kts 86°
2026-04-21 21:17 -15.85803 -47.84106 5531 ft 246 kts 87°
2026-04-21 21:18 -15.85684 -47.82269 5838 ft 264 kts 86°
2026-04-21 21:18 -15.85558 -47.80323 6418 ft 273 kts 86°
2026-04-21 21:18 -15.85360 -47.78364 7207 ft 275 kts 75°
2026-04-21 21:18 -15.84476 -47.76592 7926 ft 280 kts 50°
2026-04-21 21:19 -15.82925 -47.75361 8627 ft 288 kts 24°
2026-04-21 21:19 -15.80974 -47.74965 9324 ft 295 kts 359°
2026-04-21 21:19 -15.78929 -47.75415 10076 ft 300 kts 338°
2026-04-21 21:19 -15.77019 -47.76327 10536 ft 315 kts 334°
2026-04-21 21:20 -15.74976 -47.77371 10694 ft 339 kts 334°
2026-04-21 21:20 -15.72801 -47.78463 11074 ft 352 kts 335°
2026-04-21 21:20 -15.70600 -47.79620 11667 ft 358 kts 327°
2026-04-21 21:20 -15.68810 -47.81408 12330 ft 361 kts 304°
2026-04-21 21:21 -15.67767 -47.83775 13016 ft 363 kts 283°
2026-04-21 21:21 -15.67519 -47.86382 13670 ft 365 kts 270°
2026-04-21 21:21 -15.67512 -47.89038 14225 ft 370 kts 268°
2026-04-21 21:21 -15.67543 -47.91726 14759 ft 375 kts 268°
2026-04-21 21:22 -15.67575 -47.94439 15317 ft 378 kts 268°
2026-04-21 21:22 -15.67595 -47.97176 15888 ft 381 kts 269°
2026-04-21 21:22 -15.67602 -47.99940 16420 ft 385 kts 269°
2026-04-21 21:22 -15.67601 -48.02735 16946 ft 389 kts 269°
2026-04-21 21:23 -15.67595 -48.05545 17475 ft 392 kts 269°
2026-04-21 21:23 -15.67586 -48.08387 17979 ft 395 kts 269°
2026-04-21 21:23 -15.67577 -48.11257 18436 ft 399 kts 269°
2026-04-21 21:23 -15.67568 -48.14122 18861 ft 402 kts 269°
2026-04-21 21:24 -15.67558 -48.17033 19334 ft 403 kts 269°
2026-04-21 21:24 -15.67549 -48.19938 19805 ft 405 kts 269°
2026-04-21 21:24 -15.67540 -48.22880 20236 ft 407 kts 269°
2026-04-21 21:24 -15.67532 -48.25827 20692 ft 409 kts 269°
2026-04-21 21:25 -15.67524 -48.28792 21149 ft 411 kts 268°
2026-04-21 21:25 -15.67515 -48.31763 21602 ft 412 kts 268°
2026-04-21 21:25 -15.67506 -48.34747 22042 ft 414 kts 268°
2026-04-21 21:25 -15.67337 -48.37739 22422 ft 420 kts 280°
2026-04-21 21:26 -15.66292 -48.40577 22805 ft 425 kts 300°
2026-04-21 21:26 -15.64445 -48.42972 23219 ft 430 kts 318°
2026-04-21 21:26 -15.62058 -48.44802 23621 ft 432 kts 324°
2026-04-21 21:26 -15.59553 -48.46543 23913 ft 435 kts 326°
2026-04-21 21:27 -15.57017 -48.48267 24254 ft 436 kts 326°
2026-04-21 21:27 -15.54478 -48.49990 24618 ft 437 kts 326°
2026-04-21 21:27 -15.51948 -48.51721 24967 ft 437 kts 326°
2026-04-21 21:27 -15.49411 -48.53470 25300 ft 439 kts 326°
2026-04-21 21:28 -15.46864 -48.55239 25633 ft 440 kts 326°
2026-04-21 21:28 -15.44327 -48.57008 25961 ft 441 kts 326°
2026-04-21 21:28 -15.39222 -48.60578 26603 ft 443 kts 326°
2026-04-21 21:29 -15.36653 -48.62375 26894 ft 445 kts 326°
2026-04-21 21:29 -15.34082 -48.64173 27187 ft 447 kts 326°
2026-04-21 21:29 -15.31500 -48.65978 27488 ft 448 kts 326°
2026-04-21 21:29 -15.28910 -48.67787 27804 ft 449 kts 326°
2026-04-21 21:30 -15.26353 -48.69573 28100 ft 450 kts 326°
2026-04-21 21:30 -15.23751 -48.71389 28386 ft 451 kts 326°
2026-04-21 21:30 -15.21137 -48.73214 28633 ft 453 kts 326°
2026-04-21 21:30 -15.18517 -48.75041 28872 ft 455 kts 326°
2026-04-21 21:31 -15.15890 -48.76873 29131 ft 456 kts 327°
2026-04-21 21:31 -15.13257 -48.78709 29400 ft 457 kts 327°
2026-04-21 21:31 -15.10614 -48.80551 29641 ft 458 kts 327°
2026-04-21 21:31 -15.07965 -48.82397 29879 ft 460 kts 327°
2026-04-21 21:32 -15.05303 -48.84251 30091 ft 461 kts 327°
2026-04-21 21:32 -15.02643 -48.86104 30289 ft 462 kts 327°
2026-04-21 21:32 -14.99972 -48.87963 30490 ft 463 kts 327°
2026-04-21 21:32 -14.97328 -48.89803 30669 ft 464 kts 327°
2026-04-21 21:33 -14.94650 -48.91667 30852 ft 466 kts 327°
2026-04-21 21:33 -14.91950 -48.93544 31030 ft 467 kts 327°
2026-04-21 21:33 -14.89262 -48.95413 31270 ft 466 kts 327°
2026-04-21 21:33 -14.86569 -48.97285 31574 ft 464 kts 327°
2026-04-21 21:34 -14.83893 -48.99145 31900 ft 462 kts 327°
2026-04-21 21:34 -14.81221 -49.01001 32189 ft 461 kts 327°
2026-04-21 21:34 -14.78556 -49.02852 32449 ft 461 kts 327°
2026-04-21 21:34 -14.75931 -49.04674 32722 ft 460 kts 327°
2026-04-21 21:35 -14.73282 -49.06513 33022 ft 458 kts 327°
2026-04-21 21:35 -14.70635 -49.08349 33352 ft 456 kts 327°
2026-04-21 21:35 -14.67998 -49.10178 33650 ft 455 kts 327°
2026-04-21 21:35 -14.65371 -49.12000 33911 ft 455 kts 327°
2026-04-21 21:36 -14.62751 -49.13816 34132 ft 454 kts 327°
2026-04-21 21:36 -14.60111 -49.15646 34327 ft 455 kts 327°
2026-04-21 21:36 -14.57480 -49.17468 34512 ft 455 kts 327°
2026-04-21 21:36 -14.54883 -49.19267 34704 ft 455 kts 327°
2026-04-21 21:37 -14.52251 -49.21090 34906 ft 455 kts 327°
2026-04-21 21:37 -14.49617 -49.22912 35089 ft 456 kts 327°
2026-04-21 21:37 -14.46982 -49.24736 35298 ft 455 kts 327°
2026-04-21 21:37 -14.44353 -49.26555 35503 ft 455 kts 327°
2026-04-21 21:38 -14.41724 -49.28373 35690 ft 455 kts 327°
2026-04-21 21:38 -14.39091 -49.30194 35861 ft 455 kts 327°
2026-04-21 21:38 -14.36462 -49.32011 36050 ft 455 kts 327°
2026-04-21 21:38 -14.33828 -49.33831 36238 ft 455 kts 327°
2026-04-21 21:39 -14.31201 -49.35647 36415 ft 455 kts 327°
2026-04-21 21:39 -14.28552 -49.37476 36594 ft 455 kts 327°
2026-04-21 21:39 -14.25925 -49.39290 36774 ft 455 kts 327°
2026-04-21 21:39 -14.23283 -49.41113 36927 ft 455 kts 326°
2026-04-21 21:40 -14.20652 -49.42929 37076 ft 456 kts 326°
2026-04-21 21:40 -14.18045 -49.44728 37213 ft 456 kts 326°
2026-04-21 21:40 -14.15396 -49.46554 37384 ft 456 kts 326°
2026-04-21 21:40 -14.12767 -49.48368 37566 ft 456 kts 326°
2026-04-21 21:41 -14.10125 -49.50189 37695 ft 456 kts 326°
2026-04-21 21:41 -14.07498 -49.52000 37840 ft 456 kts 326°
2026-04-21 21:41 -14.04855 -49.53820 37888 ft 458 kts 326°
2026-04-21 21:42 -13.99726 -49.57716 37906 ft 456 kts 320°
2026-04-21 21:42 -13.94992 -49.62039 37891 ft 454 kts 318°
2026-04-21 21:43 -13.90339 -49.66344 37888 ft 451 kts 318°
2026-04-21 21:43 -13.85630 -49.70604 37894 ft 449 kts 319°
2026-04-21 21:44 -13.80913 -49.74817 37893 ft 448 kts 319°
2026-04-21 21:44 -13.76197 -49.79015 37891 ft 448 kts 319°
2026-04-21 21:45 -13.71483 -49.83211 37894 ft 448 kts 319°
2026-04-21 21:45 -13.66756 -49.87419 37888 ft 449 kts 319°
2026-04-21 21:46 -13.62018 -49.91634 37881 ft 451 kts 319°
2026-04-21 21:46 -13.57290 -49.95839 37886 ft 452 kts 319°
2026-04-21 21:47 -13.52525 -50.00074 37894 ft 453 kts 319°
2026-04-21 21:47 -13.47744 -50.04321 37884 ft 455 kts 319°
2026-04-21 21:48 -13.42947 -50.08580 37895 ft 456 kts 319°
2026-04-21 21:48 -13.38141 -50.12845 37880 ft 457 kts 319°
2026-04-21 21:49 -13.33333 -50.17110 37895 ft 457 kts 319°
2026-04-21 21:49 -13.28512 -50.21383 37889 ft 458 kts 319°
2026-04-21 21:50 -13.23723 -50.25627 37883 ft 458 kts 319°
2026-04-21 21:50 -13.18897 -50.29900 37893 ft 458 kts 320°
2026-04-21 21:51 -13.14080 -50.34163 37896 ft 457 kts 320°
2026-04-21 21:51 -13.09254 -50.38433 37880 ft 457 kts 320°
2026-04-21 21:52 -13.04437 -50.42693 37884 ft 457 kts 320°
2026-04-21 21:52 -12.99620 -50.46953 37884 ft 457 kts 319°
2026-04-21 21:53 -12.94807 -50.51207 37883 ft 457 kts 319°
2026-04-21 21:53 -12.90790 -50.54755 37886 ft 458 kts 319°
2026-04-21 21:54 -12.85176 -50.59711 37898 ft 459 kts 319°
2026-04-21 21:54 -12.81110 -50.63299 37904 ft 460 kts 319°
2026-04-21 21:55 -12.76285 -50.67554 37891 ft 461 kts 319°
2026-04-21 21:55 -12.71410 -50.71851 37884 ft 462 kts 319°
2026-04-21 21:56 -12.66525 -50.76154 37898 ft 464 kts 319°
2026-04-21 21:56 -12.61622 -50.80472 37884 ft 465 kts 319°
2026-04-21 21:57 -12.56716 -50.84790 37888 ft 466 kts 319°
2026-04-21 21:57 -12.51788 -50.89125 37888 ft 467 kts 319°
2026-04-21 21:58 -12.46855 -50.93462 37891 ft 468 kts 319°
2026-04-21 21:58 -12.41942 -50.97779 37887 ft 468 kts 319°
2026-04-21 21:59 -12.37002 -51.02118 37887 ft 468 kts 319°
2026-04-21 21:59 -12.32059 -51.06457 37890 ft 468 kts 319°
2026-04-21 22:00 -12.27112 -51.10799 37889 ft 468 kts 319°
2026-04-21 22:00 -12.22184 -51.15122 37897 ft 469 kts 319°
2026-04-21 22:01 -12.17235 -51.19459 37890 ft 468 kts 319°
2026-04-21 22:01 -12.12283 -51.23798 37898 ft 468 kts 319°
2026-04-21 22:02 -12.07335 -51.28133 37896 ft 468 kts 319°
2026-04-21 22:02 -12.02387 -51.32468 37894 ft 468 kts 319°
2026-04-21 22:03 -11.97438 -51.36800 37900 ft 468 kts 319°
2026-04-21 22:03 -11.92491 -51.41129 37903 ft 468 kts 319°
2026-04-21 22:04 -11.87574 -51.45430 37903 ft 468 kts 319°
2026-04-21 22:04 -11.82626 -51.49755 37910 ft 468 kts 319°
2026-04-21 22:05 -11.77677 -51.54079 37904 ft 468 kts 319°
2026-04-21 22:05 -11.72720 -51.58408 37906 ft 468 kts 319°
2026-04-21 22:06 -11.67771 -51.62728 37906 ft 468 kts 319°
2026-04-21 22:06 -11.62816 -51.67051 37903 ft 468 kts 319°
2026-04-21 22:07 -11.57893 -51.71344 37910 ft 468 kts 319°
2026-04-21 22:07 -11.52940 -51.75661 37910 ft 468 kts 319°
2026-04-21 22:08 -11.47990 -51.79974 37911 ft 468 kts 319°
2026-04-21 22:08 -11.43025 -51.84298 37904 ft 468 kts 319°
2026-04-21 22:09 -11.38097 -51.88587 37897 ft 469 kts 318°
2026-04-21 22:09 -11.33133 -51.92908 37898 ft 469 kts 318°
2026-04-21 22:10 -11.28172 -51.97222 37900 ft 469 kts 318°
2026-04-21 22:10 -11.23159 -52.01507 37904 ft 469 kts 319°
2026-04-21 22:11 -11.18158 -52.05729 37909 ft 470 kts 319°
2026-04-21 22:11 -11.13105 -52.09999 37907 ft 471 kts 319°
2026-04-21 22:12 -11.08065 -52.14267 37907 ft 471 kts 319°
2026-04-21 22:12 -11.03020 -52.18541 37906 ft 472 kts 319°
2026-04-21 22:13 -10.97964 -52.22822 37907 ft 473 kts 319°
2026-04-21 22:13 -10.92895 -52.27112 37912 ft 474 kts 319°
2026-04-21 22:14 -10.87856 -52.31375 37908 ft 474 kts 319°
2026-04-21 22:14 -10.82773 -52.35673 37910 ft 475 kts 319°
2026-04-21 22:15 -10.77695 -52.39964 37908 ft 475 kts 319°
2026-04-21 22:15 -10.72607 -52.44262 37910 ft 475 kts 319°
2026-04-21 22:16 -10.67557 -52.48526 37909 ft 475 kts 319°
2026-04-21 22:16 -10.62466 -52.52823 37910 ft 475 kts 319°
2026-04-21 22:17 -10.57375 -52.57118 37909 ft 474 kts 319°
2026-04-21 22:17 -10.52303 -52.61395 37910 ft 474 kts 319°
2026-04-21 22:18 -10.47222 -52.65677 37908 ft 473 kts 319°
2026-04-21 22:18 -10.42160 -52.69942 37909 ft 472 kts 319°
2026-04-21 22:19 -10.37136 -52.74173 37911 ft 472 kts 319°
2026-04-21 22:19 -10.32082 -52.78427 37905 ft 471 kts 319°
2026-04-21 22:20 -10.27036 -52.82674 37908 ft 470 kts 319°
2026-04-21 22:20 -10.21999 -52.86910 37911 ft 470 kts 319°
2026-04-21 22:21 -10.16961 -52.91146 37906 ft 469 kts 320°
2026-04-21 22:21 -10.11935 -52.95369 37907 ft 469 kts 320°
2026-04-21 22:22 -10.06933 -52.99572 37912 ft 469 kts 320°
2026-04-21 22:22 -10.01898 -53.03800 37907 ft 469 kts 320°
2026-04-21 22:23 -9.96871 -53.08020 37913 ft 469 kts 320°
2026-04-21 22:23 -9.91836 -53.12245 37912 ft 469 kts 320°
2026-04-21 22:24 -9.86955 -53.16565 37906 ft 469 kts 316°
2026-04-21 22:24 -9.82186 -53.21071 37907 ft 469 kts 316°
2026-04-21 22:25 -9.77405 -53.25581 37911 ft 469 kts 316°
2026-04-21 22:25 -9.72603 -53.30066 37912 ft 469 kts 317°
2026-04-21 22:26 -9.67797 -53.34539 37900 ft 469 kts 317°
2026-04-21 22:26 -9.62990 -53.39012 37905 ft 468 kts 317°
2026-04-21 22:27 -9.58223 -53.43449 37905 ft 468 kts 317°
2026-04-21 22:27 -9.53419 -53.47917 37906 ft 468 kts 317°
2026-04-21 22:28 -9.48616 -53.52369 37908 ft 467 kts 317°
2026-04-21 22:28 -9.43812 -53.56818 37903 ft 467 kts 317°
2026-04-21 22:29 -9.39056 -53.61223 37908 ft 466 kts 317°
2026-04-21 22:29 -9.34268 -53.65657 37905 ft 466 kts 317°
2026-04-21 22:30 -9.29483 -53.70087 37905 ft 466 kts 317°
2026-04-21 22:30 -9.24704 -53.74510 37905 ft 465 kts 317°
2026-04-21 22:31 -9.19908 -53.78947 37914 ft 466 kts 317°
2026-04-21 22:31 -9.15107 -53.83387 37908 ft 468 kts 317°
2026-04-21 22:32 -9.10320 -53.87812 37914 ft 470 kts 317°
2026-04-21 22:32 -9.05461 -53.92302 37911 ft 473 kts 317°
2026-04-21 22:33 -9.00588 -53.96804 37911 ft 475 kts 317°
2026-04-21 22:33 -8.95727 -54.01292 37910 ft 476 kts 317°
2026-04-21 22:34 -8.90820 -54.05821 37909 ft 478 kts 317°
2026-04-21 22:34 -8.85909 -54.10353 37907 ft 478 kts 317°
2026-04-21 22:35 -8.80989 -54.14891 37907 ft 478 kts 317°
2026-04-21 22:35 -8.76078 -54.19417 37910 ft 477 kts 317°
2026-04-21 22:36 -8.68763 -54.26159 37910 ft 475 kts 317°
2026-04-21 22:36 -8.63884 -54.30653 37906 ft 473 kts 317°
2026-04-21 22:37 -8.59027 -54.35126 37908 ft 472 kts 317°
2026-04-21 22:37 -8.54176 -54.39591 37906 ft 471 kts 317°
2026-04-21 22:38 -8.49363 -54.44019 37915 ft 470 kts 317°
2026-04-21 22:38 -8.44538 -54.48456 37909 ft 469 kts 318°
2026-04-21 22:39 -8.39705 -54.52901 37912 ft 469 kts 318°
2026-04-21 22:39 -8.34865 -54.57349 37914 ft 469 kts 318°
2026-04-21 22:40 -8.30059 -54.61765 37909 ft 470 kts 318°
2026-04-21 22:40 -8.25219 -54.66211 37910 ft 471 kts 318°
2026-04-21 22:41 -8.20365 -54.70668 37914 ft 472 kts 318°
2026-04-21 22:41 -8.15497 -54.75135 37912 ft 473 kts 318°
2026-04-21 22:42 -8.11451 -54.78848 37918 ft 473 kts 318°
2026-04-21 22:42 -8.05776 -54.84053 37904 ft 474 kts 318°
2026-04-21 22:43 -8.00885 -54.88538 37911 ft 475 kts 318°
2026-04-21 22:43 -7.95990 -54.93025 37909 ft 475 kts 318°
2026-04-21 22:44 -7.91920 -54.96755 37911 ft 476 kts 318°
2026-04-21 22:44 -7.87021 -55.01242 37905 ft 476 kts 318°
2026-04-21 22:45 -7.82108 -55.05742 37905 ft 476 kts 319°
2026-04-21 22:45 -7.77207 -55.10228 37905 ft 476 kts 319°
2026-04-21 22:46 -7.72303 -55.14716 37903 ft 475 kts 319°
2026-04-21 22:46 -7.67433 -55.19172 37905 ft 475 kts 319°
2026-04-21 22:47 -7.62539 -55.23648 37903 ft 474 kts 319°
2026-04-21 22:47 -7.57654 -55.28115 37905 ft 474 kts 319°
2026-04-21 22:48 -7.52775 -55.32574 37904 ft 473 kts 319°
2026-04-21 22:48 -7.47899 -55.37030 37908 ft 473 kts 319°
2026-04-21 22:49 -7.43022 -55.41486 37907 ft 473 kts 319°
2026-04-21 22:49 -7.38190 -55.45905 37905 ft 472 kts 319°
2026-04-21 22:50 -7.33325 -55.50380 37910 ft 472 kts 319°
2026-04-21 22:50 -7.28476 -55.54837 37911 ft 472 kts 319°
2026-04-21 22:51 -7.23542 -55.59192 37911 ft 471 kts 321°
2026-04-21 22:51 -7.18574 -55.63427 37908 ft 471 kts 321°
2026-04-21 22:52 -7.13575 -55.67695 37916 ft 471 kts 321°
2026-04-21 22:52 -7.08587 -55.71979 37908 ft 471 kts 321°
2026-04-21 22:53 -7.03600 -55.76274 37912 ft 471 kts 321°
2026-04-21 22:53 -6.98616 -55.80567 37903 ft 471 kts 321°
2026-04-21 22:54 -6.93628 -55.84861 37910 ft 472 kts 321°
2026-04-21 22:54 -6.88644 -55.89150 37905 ft 472 kts 321°
2026-04-21 22:55 -6.83654 -55.93442 37909 ft 472 kts 321°
2026-04-21 22:55 -6.78655 -55.97741 37904 ft 472 kts 321°
2026-04-21 22:56 -6.73683 -56.02016 37904 ft 472 kts 321°
2026-04-21 22:56 -6.68681 -56.06315 37903 ft 473 kts 321°
2026-04-21 22:57 -6.63674 -56.10617 37903 ft 473 kts 321°
2026-04-21 22:57 -6.58671 -56.14916 37904 ft 473 kts 321°
2026-04-21 22:58 -6.53664 -56.19216 37910 ft 473 kts 321°
2026-04-21 22:58 -6.48694 -56.23482 37903 ft 473 kts 321°
2026-04-21 22:59 -6.43681 -56.27785 37905 ft 473 kts 321°
2026-04-21 22:59 -6.38678 -56.32078 37887 ft 472 kts 321°
2026-04-21 23:00 -6.33722 -56.36330 37890 ft 471 kts 321°
2026-04-21 23:00 -6.28736 -56.40606 37894 ft 469 kts 321°
2026-04-21 23:01 -6.23784 -56.44852 37890 ft 467 kts 321°
2026-04-21 23:01 -6.18837 -56.49093 37893 ft 466 kts 321°
2026-04-21 23:02 -6.13913 -56.53313 37900 ft 465 kts 321°
2026-04-21 23:02 -6.08981 -56.57538 37891 ft 465 kts 321°
2026-04-21 23:03 -6.04062 -56.61751 37894 ft 465 kts 321°
2026-04-21 23:03 -5.99132 -56.65973 37901 ft 466 kts 321°
2026-04-21 23:04 -5.94219 -56.70179 37901 ft 468 kts 321°
2026-04-21 23:04 -5.89257 -56.74427 37896 ft 470 kts 321°
2026-04-21 23:05 -5.84273 -56.78693 37897 ft 471 kts 321°
2026-04-21 23:05 -5.79276 -56.82969 37894 ft 473 kts 321°
2026-04-21 23:06 -5.74574 -56.87606 37890 ft 476 kts 308°
2026-04-21 23:06 -5.71175 -56.93320 37901 ft 478 kts 298°
2026-04-21 23:07 -5.68135 -56.99215 37890 ft 478 kts 298°
2026-04-21 23:07 -5.65058 -57.05145 37886 ft 478 kts 298°
2026-04-21 23:08 -5.61951 -57.11042 37888 ft 478 kts 298°
2026-04-21 23:08 -5.58824 -57.16937 37888 ft 477 kts 298°
2026-04-21 23:09 -5.55696 -57.22824 37880 ft 476 kts 298°
2026-04-21 23:09 -5.52581 -57.28691 37888 ft 475 kts 298°
2026-04-21 23:10 -5.49471 -57.34548 37886 ft 474 kts 298°
2026-04-21 23:10 -5.46389 -57.40352 37890 ft 474 kts 298°
2026-04-21 23:11 -5.43286 -57.46194 37884 ft 473 kts 299°
2026-04-21 23:11 -5.40201 -57.51999 37888 ft 473 kts 299°
2026-04-21 23:12 -5.37107 -57.57821 37886 ft 473 kts 299°
2026-04-21 23:12 -5.34013 -57.63639 37894 ft 473 kts 299°
2026-04-21 23:13 -5.30914 -57.69467 37891 ft 473 kts 299°
2026-04-21 23:13 -5.27816 -57.75292 37894 ft 473 kts 299°
2026-04-21 23:14 -5.24714 -57.81120 37889 ft 474 kts 299°
2026-04-21 23:14 -5.21608 -57.86956 37890 ft 474 kts 299°
2026-04-21 23:15 -5.18519 -57.92759 37884 ft 475 kts 299°
2026-04-21 23:15 -5.15405 -57.98605 37890 ft 475 kts 299°
2026-04-21 23:16 -5.12290 -58.04453 37893 ft 475 kts 299°
2026-04-21 23:16 -5.09174 -58.10303 37891 ft 476 kts 299°
2026-04-21 23:17 -5.06057 -58.16152 37888 ft 476 kts 299°
2026-04-21 23:17 -5.02931 -58.22014 37885 ft 476 kts 299°
2026-04-21 23:18 -4.99809 -58.27869 37891 ft 475 kts 299°
2026-04-21 23:18 -4.96687 -58.33722 37887 ft 475 kts 299°
2026-04-21 23:19 -4.93590 -58.39528 37883 ft 475 kts 299°
2026-04-21 23:19 -4.90471 -58.45372 37889 ft 474 kts 299°
2026-04-21 23:20 -4.87360 -58.51200 37885 ft 474 kts 299°
2026-04-21 23:20 -4.84248 -58.57029 37888 ft 473 kts 299°
2026-04-21 23:21 -4.81141 -58.62847 37889 ft 473 kts 299°
2026-04-21 23:21 -4.78035 -58.68661 37886 ft 472 kts 299°
2026-04-21 23:22 -4.74934 -58.74465 37883 ft 472 kts 299°
2026-04-21 23:22 -4.73372 -58.77387 37377 ft 479 kts 299°
2026-04-21 23:22 -4.71818 -58.80294 36893 ft 476 kts 299°
2026-04-21 23:23 -4.70252 -58.83224 36315 ft 476 kts 299°
2026-04-21 23:23 -4.68699 -58.86131 35937 ft 471 kts 299°
2026-04-21 23:23 -4.67156 -58.89016 35509 ft 468 kts 299°
2026-04-21 23:23 -4.65621 -58.91888 35085 ft 465 kts 299°
2026-04-21 23:24 -4.64100 -58.94732 34672 ft 462 kts 299°
2026-04-21 23:24 -4.62581 -58.97572 34237 ft 460 kts 299°
2026-04-21 23:24 -4.61070 -59.00396 33811 ft 458 kts 299°
2026-04-21 23:24 -4.59573 -59.03195 33335 ft 456 kts 299°
2026-04-21 23:25 -4.58075 -59.05994 32898 ft 453 kts 299°
2026-04-21 23:25 -4.56587 -59.08774 32483 ft 450 kts 299°
2026-04-21 23:25 -4.55115 -59.11526 32070 ft 447 kts 299°
2026-04-21 23:25 -4.53669 -59.14228 31672 ft 444 kts 299°
2026-04-21 23:26 -4.52213 -59.16946 31266 ft 442 kts 299°
2026-04-21 23:26 -4.50765 -59.19652 30872 ft 439 kts 299°
2026-04-21 23:26 -4.49323 -59.22344 30475 ft 437 kts 299°
2026-04-21 23:26 -4.47890 -59.25020 30064 ft 435 kts 299°
2026-04-21 23:27 -4.46462 -59.27687 29609 ft 433 kts 299°
2026-04-21 23:27 -4.45037 -59.30347 29173 ft 430 kts 299°
2026-04-21 23:27 -4.43630 -59.32974 28742 ft 427 kts 299°
2026-04-21 23:27 -4.42230 -59.35588 28326 ft 423 kts 299°
2026-04-21 23:28 -4.40842 -59.38179 27916 ft 420 kts 299°
2026-04-21 23:28 -4.39462 -59.40755 27513 ft 417 kts 299°
2026-04-21 23:28 -4.38112 -59.43275 27106 ft 414 kts 299°
2026-04-21 23:28 -4.36736 -59.45842 26712 ft 411 kts 299°
2026-04-21 23:29 -4.35405 -59.48325 26327 ft 409 kts 299°
2026-04-21 23:29 -4.34060 -59.50835 25933 ft 406 kts 299°
2026-04-21 23:29 -4.32728 -59.53320 25541 ft 404 kts 299°
2026-04-21 23:29 -4.31403 -59.55790 25139 ft 402 kts 299°
2026-04-21 23:30 -4.30088 -59.58244 24748 ft 400 kts 299°
2026-04-21 23:30 -4.28767 -59.60706 24345 ft 399 kts 299°
2026-04-21 23:30 -4.27459 -59.63145 23951 ft 397 kts 299°
2026-04-21 23:30 -4.26153 -59.65580 23547 ft 396 kts 299°
2026-04-21 23:31 -4.25289 -59.67192 23260 ft 395 kts 299°
2026-04-21 23:31 -4.23996 -59.69602 22836 ft 392 kts 299°
2026-04-21 23:31 -4.22706 -59.72006 22433 ft 389 kts 299°
2026-04-21 23:31 -4.21431 -59.74384 22038 ft 386 kts 299°
2026-04-21 23:32 -4.20164 -59.76745 21656 ft 383 kts 299°
2026-04-21 23:32 -4.18909 -59.79085 21277 ft 380 kts 299°
2026-04-21 23:32 -4.17660 -59.81413 20903 ft 377 kts 299°
2026-04-21 23:32 -4.16420 -59.83724 20524 ft 375 kts 299°
2026-04-21 23:33 -4.15205 -59.85988 20157 ft 373 kts 299°
2026-04-21 23:33 -4.13983 -59.88265 19790 ft 370 kts 299°
2026-04-21 23:33 -4.12766 -59.90532 19425 ft 368 kts 299°
2026-04-21 23:33 -4.11545 -59.92795 19048 ft 367 kts 301°
2026-04-21 23:34 -4.09966 -59.94767 18663 ft 363 kts 320°
2026-04-21 23:34 -4.07878 -59.96121 18429 ft 354 kts 338°
2026-04-21 23:34 -4.05564 -59.96925 18114 ft 350 kts 344°
2026-04-21 23:34 -4.03225 -59.97592 17723 ft 348 kts 346°
2026-04-21 23:35 -4.00894 -59.98223 17348 ft 346 kts 346°
2026-04-21 23:35 -3.98563 -59.98852 16981 ft 345 kts 346°
2026-04-21 23:35 -3.96250 -59.99484 16617 ft 343 kts 346°
2026-04-21 23:35 -3.93960 -60.00118 16254 ft 341 kts 345°
2026-04-21 23:36 -3.91680 -60.00756 15901 ft 339 kts 345°
2026-04-21 23:36 -3.89442 -60.01386 15556 ft 338 kts 345°
2026-04-21 23:36 -3.87188 -60.02024 15205 ft 336 kts 345°
2026-04-21 23:36 -3.84937 -60.02662 14841 ft 335 kts 345°
2026-04-21 23:37 -3.82671 -60.03306 14492 ft 334 kts 345°
2026-04-21 23:37 -3.80457 -60.03935 14125 ft 334 kts 345°
2026-04-21 23:37 -3.78224 -60.04570 13772 ft 333 kts 345°
2026-04-21 23:37 -3.75991 -60.05205 13386 ft 333 kts 345°
2026-04-21 23:38 -3.73761 -60.05840 13016 ft 331 kts 345°
2026-04-21 23:38 -3.71554 -60.06468 12657 ft 329 kts 345°
2026-04-21 23:38 -3.69355 -60.07093 12306 ft 328 kts 345°
2026-04-21 23:38 -3.67164 -60.07717 11959 ft 326 kts 345°
2026-04-21 23:39 -3.64986 -60.08336 11610 ft 324 kts 345°
2026-04-21 23:39 -3.62816 -60.08953 11257 ft 323 kts 345°
2026-04-21 23:39 -3.60658 -60.09567 10926 ft 321 kts 345°
2026-04-21 23:39 -3.58515 -60.10177 10575 ft 320 kts 345°
2026-04-21 23:40 -3.56396 -60.10779 10233 ft 319 kts 345°
2026-04-21 23:40 -3.54283 -60.11380 10077 ft 312 kts 345°
2026-04-21 23:40 -3.52215 -60.11968 9912 ft 305 kts 345°
2026-04-21 23:40 -3.50202 -60.12541 9838 ft 294 kts 345°
2026-04-21 23:41 -3.48216 -60.13105 9355 ft 299 kts 345°
2026-04-21 23:41 -3.46212 -60.13675 8999 ft 299 kts 345°
2026-04-21 23:41 -3.44217 -60.14242 8700 ft 298 kts 345°
2026-04-21 23:41 -3.42226 -60.14809 8387 ft 296 kts 345°
2026-04-21 23:42 -3.40289 -60.15359 8091 ft 295 kts 345°
2026-04-21 23:42 -3.38314 -60.15921 7784 ft 292 kts 345°
2026-04-21 23:42 -3.36396 -60.16466 7474 ft 284 kts 345°
2026-04-21 23:42 -3.34516 -60.17001 7181 ft 276 kts 345°
2026-04-21 23:43 -3.32698 -60.17518 6898 ft 268 kts 345°
2026-04-21 23:43 -3.30944 -60.18017 6632 ft 261 kts 345°
2026-04-21 23:43 -3.29209 -60.18510 6369 ft 255 kts 345°
2026-04-21 23:43 -3.27509 -60.18993 6111 ft 254 kts 345°
2026-04-21 23:44 -3.25807 -60.19476 5837 ft 254 kts 345°
2026-04-21 23:44 -3.24109 -60.19959 5573 ft 254 kts 345°
2026-04-21 23:44 -3.22413 -60.20441 5309 ft 253 kts 345°
2026-04-21 23:44 -3.20719 -60.20922 5040 ft 253 kts 346°
2026-04-21 23:45 -3.19022 -60.21404 4783 ft 252 kts 345°
2026-04-21 23:45 -3.15647 -60.22363 4242 ft 251 kts 345°
2026-04-21 23:45 -3.13965 -60.22844 4006 ft 250 kts 344°
2026-04-21 23:46 -3.12380 -60.23496 3876 ft 247 kts 333°
2026-04-21 23:46 -3.10826 -60.24264 3758 ft 252 kts 338°
2026-04-21 23:46 -3.09177 -60.24845 3608 ft 254 kts 346°
2026-04-21 23:46 -3.07476 -60.25219 3442 ft 248 kts 352°
2026-04-21 23:47 -3.05782 -60.25264 3266 ft 241 kts 15°
2026-04-21 23:47 -3.04377 -60.24474 3125 ft 231 kts 50°
2026-04-21 23:47 -3.03776 -60.23056 3025 ft 220 kts 85°
2026-04-21 23:47 -3.03744 -60.21543 2818 ft 218 kts 91°
2026-04-21 23:48 -3.03776 -60.20035 2627 ft 214 kts 91°
2026-04-21 23:48 -3.03800 -60.18569 2433 ft 205 kts 91°
2026-04-21 23:48 -3.03814 -60.17187 2254 ft 192 kts 90°
2026-04-21 23:48 -3.03830 -60.15920 2089 ft 178 kts 91°
2026-04-21 23:49 -3.03838 -60.14718 1872 ft 167 kts 90°
2026-04-21 23:49 -3.03841 -60.13595 1710 ft 156 kts 90°
2026-04-21 23:49 -3.03843 -60.12530 1485 ft 150 kts 90°
2026-04-21 23:49 -3.03845 -60.11500 1283 ft 146 kts 90°
2026-04-21 23:50 -3.03847 -60.10478 1106 ft 148 kts 90°
2026-04-21 23:50 -3.03849 -60.09444 926 ft 148 kts 90°
2026-04-21 23:50 -3.03852 -60.08413 735 ft 149 kts 90°
2026-04-21 23:50 -3.03854 -60.07379 556 ft 148 kts 90°
2026-04-21 23:51 -3.03853 -60.06351 365 ft 147 kts 90°
2026-04-21 23:51 -3.03857 -60.05343 270 ft 137 kts 90°
2026-04-21 23:51 -3.03860 -60.04515 269 ft 99 kts 91°
2026-04-21 23:51 -3.03864 -60.04066 268 ft 31 kts 90°
2026-04-21 23:52 -3.03862 -60.03874 267 ft 21 kts 90°
2026-04-21 23:52 -3.03862 -60.03805 267 ft 8 kts 83°
2026-04-21 23:52 -3.03833 -60.03762 267 ft 8 kts 21°
2026-04-21 23:52 -3.03781 -60.03768 268 ft 8 kts 342°
2026-04-21 23:53 -3.03731 -60.03784 268 ft 7 kts 342°
2026-04-21 23:53 -3.03694 -60.03816 268 ft 7 kts 301°
2026-04-21 23:53 -3.03679 -60.03864 268 ft 7 kts 285°
2026-04-21 23:53 -3.03666 -60.03910 268 ft 7 kts 285°
2026-04-21 23:54 -3.03654 -60.03956 267 ft 7 kts 286°
2026-04-21 23:54 -3.03641 -60.04001 267 ft 7 kts 284°
2026-04-21 23:54 -3.03629 -60.04046 267 ft 7 kts 285°
2026-04-21 23:54 -3.03617 -60.04089 267 ft 6 kts 285°
2026-04-21 23:55 -3.03606 -60.04131 267 ft 6 kts 285°
2026-04-21 23:55 -3.03595 -60.04172 267 ft 6 kts 285°
2026-04-21 23:55 -3.03584 -60.04213 267 ft 6 kts 285°
2026-04-21 23:55 -3.03564 -60.04250 267 ft 6 kts 307°
2026-04-21 23:56 -3.03537 -60.04282 267 ft 6 kts 310°
2026-04-21 23:56 -3.03511 -60.04313 267 ft 6 kts 310°
2026-04-21 23:56 -3.03484 -60.04345 267 ft 6 kts 310°
2026-04-21 23:56 -3.03470 -60.04362 267 ft 0 kts 310°
2026-04-21 23:57 -3.03458 -60.04367 267 ft 6 kts 343°
2026-04-21 23:57 -3.03411 -60.04373 259 ft 7 kts 352°
2026-04-21 23:57 -3.03363 -60.04383 267 ft 7 kts 335°
2026-04-21 23:58 -3.03327 -60.04405 267 ft 4 kts 303°
2026-04-21 23:58 -3.03331 -60.04434 267 ft 4 kts 254°
2026-04-21 23:58 -3.03339 -60.04462 267 ft 4 kts 254°
2026-04-21 23:58 -3.03347 -60.04491 267 ft 4 kts 258°
2026-04-21 23:59 -3.03351 -60.04520 267 ft 4 kts 264°
2026-04-21 23:59 -3.03353 -60.04549 267 ft 4 kts 268°
2026-04-21 23:59 -3.03352 -60.04577 267 ft 4 kts 286°
2026-04-21 23:59 -3.03350 -60.04580 267 ft 3 kts 308°
2026-04-22 00:00 -3.03331 -60.04580 267 ft 3 kts
2026-04-22 00:00 -3.03310 -60.04579 267 ft 3 kts 358°
2026-04-22 00:00 -3.03287 -60.04580 267 ft 3 kts 357°
2026-04-22 00:00 -3.03272 -60.04581 267 ft 0 kts 357°